When you browse on this site, cookies collect data to enhance your experience and personalize the content and advertising you see.
Visit our Privacy Policy to learn more. By continuing to use the site, you agree to this use of cookies and data.
  • In Lithuania
  • List of Countries
  • For 7 days
  • Water Temperature
  • Satellite Maps
  • Weather Map
  • Weather Widgets
  • user-avatar
    Login

    Hourly Weather Zinovka

    Today, 23 January, Wednesday

    Time Temperature Precipitation Wind Pressure Humidity
    00:00 -23°C° 0 mm 2 mps 750 mmHg 97%
    01:00 -23°C° 0 mm 2 mps 750 mmHg 97%
    02:00 -23°C° 0 mm 2 mps 750 mmHg 97%
    03:00 -20°C° 0 mm 1 mps 750 mmHg 98%
    04:00 -20°C° 0 mm 1 mps 750 mmHg 98%
    05:00 -20°C° 0 mm 1 mps 750 mmHg 98%
    06:00 -20°C° 0 mm 1 mps 750 mmHg 98%
    07:00 -20°C° 0 mm 1 mps 750 mmHg 98%
    08:00 -20°C° 0 mm 1 mps 750 mmHg 98%
    09:00 -20°C° 0 mm 1 mps 750 mmHg 95%
    10:00 -19°C° 0 mm 1 mps 750 mmHg 94%
    11:00 -20°C° 0 mm 2 mps 750 mmHg 93%
    12:00 -19°C° 0 mm 2 mps 750 mmHg 92%
    13:00 -18°C° 0 mm 2 mps 750 mmHg 92%
    14:00 -18°C° 0 mm 2 mps 750 mmHg 92%
    15:00 -19°C° 0 mm 2 mps 750 mmHg 91%
    16:00 -19°C° 0 mm 2 mps 750 mmHg 93%
    17:00 -20°C° 0 mm 2 mps 750 mmHg 94%
    18:00 -21°C° 0 mm 2 mps 750 mmHg 95%
    19:00 -21°C° 0 mm 2 mps 750 mmHg 96%
    20:00 -23°C° 0 mm 3 mps 750 mmHg 98%
    21:00 -23°C° 0 mm 3 mps 749 mmHg 99%
    22:00 -22°C° 0 mm 3 mps 749 mmHg 98%
    23:00 -22°C° 0 mm 3 mps 749 mmHg 98%

    Tomorrow, 24 January, Thursday

    Time Temperature Precipitation Wind Pressure Humidity
    00:00 -21°C° 0 mm 3 mps 749 mmHg 97%
    01:00 -19°C° 0.2 mm 3 mps 748 mmHg 97%
    02:00 -19°C° 0.2 mm 4 mps 748 mmHg 97%
    03:00 -18°C° 0.2 mm 4 mps 747 mmHg 96%
    04:00 -18°C° 0.3 mm 4 mps 746 mmHg 96%
    05:00 -18°C° 0.3 mm 4 mps 746 mmHg 96%
    06:00 -18°C° 0.3 mm 4 mps 745 mmHg 96%
    07:00 -18°C° 0.2 mm 4 mps 745 mmHg 96%
    08:00 -18°C° 0.2 mm 4 mps 744 mmHg 95%
    09:00 -18°C° 0.2 mm 4 mps 744 mmHg 95%
    10:00 -16°C° 0.1 mm 3 mps 744 mmHg 95%
    11:00 -16°C° 0.1 mm 3 mps 744 mmHg 94%
    12:00 -15°C° 0.1 mm 3 mps 744 mmHg 94%
    13:00 -15°C° 0 mm 3 mps 744 mmHg 94%
    14:00 -15°C° 0 mm 3 mps 744 mmHg 95%
    15:00 -15°C° 0 mm 3 mps 744 mmHg 95%
    16:00 -16°C° 0 mm 3 mps 744 mmHg 96%
    17:00 -18°C° 0 mm 3 mps 745 mmHg 96%
    18:00 -19°C° 0 mm 3 mps 745 mmHg 97%
    19:00 -21°C° 0 mm 3 mps 745 mmHg 97%
    20:00 -19°C° 0 mm 2 mps 746 mmHg 98%
    21:00 -20°C° 0 mm 2 mps 746 mmHg 98%
    22:00 -20°C° 0 mm 2 mps 747 mmHg 98%
    23:00 -20°C° 0 mm 2 mps 747 mmHg 98%

    Day after tomorrow, 25 January, Friday

    Time Temperature Precipitation Wind Pressure Humidity
    00:00 -19°C° 0 mm 2 mps 748 mmHg 98%
    01:00 -19°C° 0 mm 2 mps 748 mmHg 98%
    02:00 -19°C° 0 mm 2 mps 749 mmHg 98%
    03:00 -19°C° 0 mm 3 mps 749 mmHg 98%
    04:00 -21°C° 0 mm 3 mps 749 mmHg 98%
    05:00 -22°C° 0 mm 3 mps 750 mmHg 99%
    06:00 -22°C° 0 mm 3 mps 750 mmHg 99%
    07:00 -23°C° 0 mm 3 mps 751 mmHg 99%
    08:00 -23°C° 0 mm 3 mps 751 mmHg 99%
    09:00 -23°C° 0 mm 2 mps 752 mmHg 99%
    10:00 -21°C° 0 mm 2 mps 752 mmHg 98%
    11:00 -20°C° 0 mm 2 mps 753 mmHg 97%
    12:00 -19°C° 0 mm 2 mps 753 mmHg 96%
    13:00 -18°C° 0 mm 2 mps 753 mmHg 95%
    14:00 -18°C° 0 mm 2 mps 753 mmHg 95%
    15:00 -18°C° 0 mm 2 mps 754 mmHg 94%
    16:00 -19°C° 0 mm 2 mps 754 mmHg 94%
    17:00 -20°C° 0 mm 2 mps 754 mmHg 94%
    18:00 -21°C° 0 mm 2 mps 754 mmHg 94%
    19:00 -21°C° 0 mm 2 mps 754 mmHg 94%
    20:00 -21°C° 0 mm 2 mps 755 mmHg 95%
    21:00 -23°C° 0 mm 2 mps 755 mmHg 95%
    22:00 -24°C° 0 mm 3 mps 755 mmHg 95%
    23:00 -24°C° 0 mm 3 mps 755 mmHg 95%

    26 January, Saturday

    Time Temperature Precipitation Wind Pressure Humidity
    00:00 -24°C° 0 mm 3 mps 755 mmHg 95%
    01:00 -24°C° 0 mm 3 mps 754 mmHg 94%
    02:00 -24°C° 0 mm 3 mps 754 mmHg 94%
    03:00 -24°C° 0 mm 3 mps 754 mmHg 94%
    04:00 -25°C° 0 mm 4 mps 753 mmHg 92%
    05:00 -25°C° 0 mm 4 mps 753 mmHg 90%
    06:00 -25°C° 0 mm 4 mps 752 mmHg 89%
    07:00 -24°C° 0 mm 5 mps 752 mmHg 88%
    08:00 -22°C° 0 mm 5 mps 751 mmHg 88%
    09:00 -21°C° 0 mm 5 mps 751 mmHg 88%
    10:00 -21°C° 0.3 mm 6 mps 750 mmHg 90%
    11:00 -20°C° 0.3 mm 6 mps 750 mmHg 92%
    12:00 -19°C° 0.3 mm 7 mps 749 mmHg 94%
    13:00 -18°C° 0.7 mm 7 mps 748 mmHg 94%
    14:00 -17°C° 0.7 mm 6 mps 748 mmHg 95%
    15:00 -16°C° 0.7 mm 6 mps 747 mmHg 95%
    16:00 -16°C° 0.4 mm 6 mps 746 mmHg 94%
    17:00 -15°C° 0.4 mm 6 mps 746 mmHg 94%
    18:00 -15°C° 0.4 mm 6 mps 745 mmHg 94%
    19:00 -14°C° 0.4 mm 6 mps 745 mmHg 94%
    20:00 -14°C° 0.4 mm 7 mps 744 mmHg 93%
    21:00 -13°C° 0.4 mm 7 mps 744 mmHg 93%
    22:00 -13°C° 0.3 mm 7 mps 744 mmHg 93%
    23:00 -13°C° 0.3 mm 7 mps 743 mmHg 93%

    27 January, Sunday

    Time Temperature Precipitation Wind Pressure Humidity
    00:00 -13°C° 0.3 mm 7 mps 743 mmHg 93%
    01:00 -13°C° 0.5 mm 7 mps 742 mmHg 93%
    02:00 -12°C° 0.5 mm 7 mps 742 mmHg 93%
    03:00 -12°C° 0.5 mm 7 mps 741 mmHg 93%
    04:00 -11°C° 0.7 mm 7 mps 741 mmHg 93%
    05:00 -11°C° 0.7 mm 7 mps 740 mmHg 93%
    06:00 -9°C° 0.7 mm 7 mps 740 mmHg 93%
    07:00 -11°C° 0.4 mm 7 mps 739 mmHg 93%
    08:00 -11°C° 0.4 mm 7 mps 739 mmHg 93%
    09:00 -11°C° 0.4 mm 7 mps 739 mmHg 92%
    10:00 -12°C° 0.1 mm 7 mps 738 mmHg 93%
    11:00 -12°C° 0.1 mm 7 mps 738 mmHg 93%
    12:00 -12°C° 0.1 mm 7 mps 738 mmHg 94%
    13:00 -11°C° 0.5 mm 6 mps 737 mmHg 93%
    14:00 -11°C° 0.5 mm 6 mps 737 mmHg 93%
    15:00 -10°C° 0.5 mm 6 mps 736 mmHg 93%
    16:00 -10°C° 0.5 mm 6 mps 736 mmHg 94%
    17:00 -10°C° 0.5 mm 5 mps 736 mmHg 94%
    18:00 -11°C° 0.5 mm 5 mps 736 mmHg 94%
    19:00 -9°C° 0.3 mm 4 mps 736 mmHg 95%
    20:00 -9°C° 0.3 mm 4 mps 736 mmHg 95%
    21:00 -9°C° 0.3 mm 4 mps 735 mmHg 95%
    22:00 -8°C° 0.3 mm 3 mps 735 mmHg 96%
    23:00 -8°C° 0.3 mm 3 mps 735 mmHg 96%

    28 January, Monday

    Time Temperature Precipitation Wind Pressure Humidity
    00:00 -7°C° 0.3 mm 2 mps 735 mmHg 96%
    01:00 -6°C° 0.3 mm 2 mps 736 mmHg 97%
    02:00 -4°C° 0.3 mm 1 mps 736 mmHg 97%
    03:00 -4°C° 0.3 mm 1 mps 736 mmHg 97%
    04:00 -6°C° 0.2 mm 1 mps 736 mmHg 97%
    05:00 -7°C° 0.2 mm 2 mps 736 mmHg 97%
    06:00 -7°C° 0.2 mm 2 mps 736 mmHg 97%
    07:00 -8°C° 0.1 mm 3 mps 737 mmHg 96%
    08:00 -8°C° 0.1 mm 3 mps 737 mmHg 96%
    09:00 -9°C° 0.1 mm 4 mps 738 mmHg 96%
    10:00 -9°C° 0 mm 4 mps 738 mmHg 95%
    11:00 -9°C° 0 mm 4 mps 739 mmHg 94%
    12:00 -10°C° 0 mm 5 mps 739 mmHg 94%
    13:00 -10°C° 0 mm 5 mps 739 mmHg 94%
    14:00 -10°C° 0 mm 5 mps 740 mmHg 93%
    15:00 -10°C° 0 mm 5 mps 740 mmHg 93%
    16:00 -10°C° 0 mm 5 mps 741 mmHg 93%
    17:00 -10°C° 0 mm 5 mps 741 mmHg 93%
    18:00 -9°C° 0 mm 4 mps 742 mmHg 93%
    19:00 -9°C° 0 mm 4 mps 743 mmHg 93%
    20:00 -10°C° 0 mm 4 mps 743 mmHg 94%
    21:00 -10°C° 0 mm 4 mps 743 mmHg 94%
    22:00 -10°C° 0 mm 4 mps 744 mmHg 95%
    23:00 -10°C° 0 mm 3 mps 744 mmHg 95%
    Show more